カタログに戻る

COSMOS 1253

運用中軍事LEO
NORAD 12323·PAYLOAD·🇷🇺 Russia

打ち上げ Mar 6, 1981 から Plesetsk Cosmodrome

Loading…

次のパス (今後24時間)

TLE

最新Source: Space-Track

元期: Sep 14, 2026, 15:21 UTC

1 12323U 81022D   26257.64000955 -.00000015  00000-0  29380-5 0  9999
2 12323  74.0324  24.1149 0018419 278.4290  92.8501 12.45841957 70467

AllMySatでCOSMOS 1253をリアルタイム追跡

Download on the App Store